FIN132 WSSS-EFHK

Flight info

Callsign FIN132
Flight time N/A
Altitude 34000
Route AROSO3A/02C AROSO Y513 KALIL Y501 RINBA Y503 VPL P628 VATLA/N0501F360 P628 DUDIK W138 KKJ L333 MERUN/N0496F380 L750 RANAH A846 RUBAD B475 DOLOS B449 MAMED B450 BIBIM A909 RODAR N644 NIJAT/N0487F400 N644 ADEKI DCT BADIR DCT LAGAS DCT FOQUS DCT SARPI UM10 GOKPA UL746 ODERO L746 LUGEB DCT KENIN DCT TOXAR/N0481F410 DCT BOKSU DCT GUNTA DCT SOKVA DCT ANAMA DCT KEMET DCT KEXLE DCT BEKNA DCT INTOR
Aircraft A359/H-SDE2E3GHIJ3J4J5LM1ORWXY/LB1D1

Departure

Time N/A
Airport Singapore Changi Airport (WSSS)

Arrival

Time 2026-05-04 02:49
Airport Helsinki Vantaa Airport (EFHK)
Time Latitude Longitude Altitude Speed Heading
2026-05-03 20:15 34.13817 65.45001 38135 ft 435 kts 309°
2026-05-03 20:15 34.17606 65.39281 38164 ft 435 kts 309°
2026-05-03 20:16 34.21395 65.33555 38148 ft 437 kts 309°
2026-05-03 20:16 34.25158 65.27855 38148 ft 437 kts 309°
2026-05-03 20:17 34.28938 65.22120 38151 ft 435 kts 309°
2026-05-03 20:17 34.32709 65.16392 38153 ft 435 kts 309°
2026-05-03 20:18 34.36470 65.10671 38158 ft 435 kts 309°
2026-05-03 20:18 34.40241 65.04924 38154 ft 436 kts 309°
2026-05-03 20:19 34.44015 64.99164 38158 ft 437 kts 309°
2026-05-03 20:19 34.47781 64.93408 38158 ft 435 kts 308°
2026-05-03 20:20 34.51532 64.87670 38161 ft 434 kts 308°
2026-05-03 20:20 34.55267 64.81929 38164 ft 434 kts 308°
2026-05-03 20:21 34.59008 64.76159 38165 ft 435 kts 308°
2026-05-03 20:21 34.62749 64.70384 38163 ft 435 kts 308°
2026-05-03 20:22 34.66493 64.64600 38161 ft 435 kts 308°
2026-05-03 20:22 34.70225 64.58823 38175 ft 435 kts 308°
2026-05-03 20:23 34.73962 64.53031 38157 ft 435 kts 308°
2026-05-03 20:23 34.77697 64.47232 38156 ft 435 kts 308°
2026-05-03 20:24 34.81421 64.41442 38152 ft 434 kts 308°
2026-05-03 20:24 34.85144 64.35642 38120 ft 435 kts 308°
2026-05-03 20:25 34.88864 64.29839 38142 ft 434 kts 308°
2026-05-03 20:25 34.92573 64.24041 38137 ft 434 kts 308°
2026-05-03 20:26 34.96276 64.18246 38129 ft 434 kts 308°
2026-05-03 20:26 34.99986 64.12428 38129 ft 434 kts 308°
2026-05-03 20:27 35.03686 64.06618 38122 ft 434 kts 308°
2026-05-03 20:27 35.07364 64.00830 38123 ft 434 kts 308°
2026-05-03 20:28 35.11058 63.95010 38115 ft 433 kts 308°
2026-05-03 20:28 35.14744 63.89192 38112 ft 433 kts 308°
2026-05-03 20:29 35.18424 63.83375 38108 ft 433 kts 308°
2026-05-03 20:29 35.22109 63.77540 38124 ft 433 kts 308°
2026-05-03 20:30 35.25791 63.71697 38105 ft 434 kts 308°
2026-05-03 20:30 35.29470 63.65850 38102 ft 432 kts 307°
2026-05-03 20:31 35.33144 63.60025 38094 ft 432 kts 308°
2026-05-03 20:31 35.36828 63.54195 38095 ft 433 kts 308°
2026-05-03 20:32 35.40485 63.48397 38089 ft 433 kts 308°
2026-05-03 20:32 35.44172 63.42537 38067 ft 434 kts 307°
2026-05-03 20:33 35.47848 63.36683 38081 ft 433 kts 307°
2026-05-03 20:33 35.51512 63.30837 38075 ft 432 kts 307°
2026-05-03 20:34 35.55178 63.24980 38078 ft 432 kts 307°
2026-05-03 20:34 35.59005 63.19263 38069 ft 435 kts 314°
2026-05-03 20:35 35.63298 63.14021 38064 ft 435 kts 315°
2026-05-03 20:35 35.67662 63.08858 38061 ft 434 kts 315°
2026-05-03 20:36 35.72019 63.03717 38062 ft 434 kts 315°
2026-05-03 20:36 35.76359 62.98573 38057 ft 433 kts 315°
2026-05-03 20:37 35.80700 62.93410 38061 ft 433 kts 315°
2026-05-03 20:37 35.85033 62.88245 38056 ft 433 kts 314°
2026-05-03 20:38 35.89367 62.83071 38062 ft 433 kts 314°
2026-05-03 20:38 35.93703 62.77888 38054 ft 434 kts 314°
2026-05-03 20:39 35.98034 62.72702 38057 ft 434 kts 314°
2026-05-03 20:39 36.02337 62.67542 38054 ft 434 kts 314°
2026-05-03 20:40 36.06661 62.62347 38071 ft 434 kts 314°
2026-05-03 20:40 36.10998 62.57129 38058 ft 435 kts 314°
2026-05-03 20:41 36.15337 62.51899 38041 ft 436 kts 314°
2026-05-03 20:41 36.19665 62.46676 38058 ft 433 kts 314°
2026-05-03 20:42 36.23954 62.41490 38065 ft 433 kts 314°
2026-05-03 20:42 36.28273 62.36258 38059 ft 435 kts 314°
2026-05-03 20:43 36.32607 62.31000 38059 ft 436 kts 314°
2026-05-03 20:43 36.36932 62.25745 38059 ft 436 kts 314°
2026-05-03 20:44 36.41264 62.20474 38059 ft 435 kts 314°
2026-05-03 20:44 36.45585 62.15206 38054 ft 436 kts 314°
2026-05-03 20:45 36.49907 62.09928 38054 ft 436 kts 314°
2026-05-03 20:45 36.54229 62.04643 38053 ft 436 kts 314°
2026-05-03 20:46 36.58551 61.99348 38057 ft 436 kts 314°
2026-05-03 20:46 36.62873 61.94044 38054 ft 437 kts 314°
2026-05-03 20:47 36.67198 61.88727 38050 ft 436 kts 313°
2026-05-03 20:47 36.71512 61.83417 38050 ft 435 kts 313°
2026-05-03 20:48 36.75815 61.78109 38050 ft 436 kts 313°
2026-05-03 20:48 36.80131 61.72776 38050 ft 437 kts 313°
2026-05-03 20:49 36.84450 61.67432 38052 ft 437 kts 313°
2026-05-03 20:49 36.88766 61.62084 38050 ft 437 kts 313°
2026-05-03 20:50 36.93086 61.56725 38051 ft 439 kts 313°
2026-05-03 20:50 36.97428 61.51329 38053 ft 440 kts 313°
2026-05-03 20:51 37.01742 61.45959 38055 ft 440 kts 313°
2026-05-03 20:51 37.06080 61.40550 38066 ft 440 kts 313°
2026-05-03 20:52 37.10422 61.35128 38056 ft 441 kts 313°
2026-05-03 20:52 37.14761 61.29700 38058 ft 440 kts 313°
2026-05-03 20:53 37.19088 61.24278 38059 ft 439 kts 313°
2026-05-03 20:53 37.23411 61.18852 38057 ft 440 kts 313°
2026-05-03 20:54 37.27734 61.13406 38053 ft 441 kts 313°
2026-05-03 20:54 37.34226 61.05209 38053 ft 441 kts 313°
2026-05-03 20:55 37.38542 60.99751 38050 ft 439 kts 313°
2026-05-03 20:55 37.42840 60.94306 38048 ft 438 kts 313°
2026-05-03 20:56 37.47132 60.88858 38045 ft 438 kts 313°
2026-05-03 20:56 37.51420 60.83407 38045 ft 438 kts 313°
2026-05-03 20:57 37.55687 60.77973 38041 ft 439 kts 313°
2026-05-03 20:57 37.59293 60.73372 38036 ft 441 kts 312°
2026-05-03 20:58 37.63586 60.67889 38034 ft 439 kts 312°
2026-05-03 20:58 37.67869 60.62408 38031 ft 438 kts 312°
2026-05-03 20:59 37.72126 60.56950 38027 ft 440 kts 312°
2026-05-03 20:59 37.76422 60.51423 38027 ft 441 kts 311°
2026-05-03 21:00 37.79925 60.46674 38032 ft 440 kts 310°
2026-05-03 21:00 37.84703 60.40022 38040 ft 438 kts 310°
2026-05-03 21:01 37.88821 60.34318 38018 ft 440 kts 310°
2026-05-03 21:01 37.92958 60.28616 38018 ft 440 kts 310°
2026-05-03 21:02 37.97101 60.22897 38017 ft 440 kts 309°
2026-05-03 21:02 38.00552 60.16554 37999 ft 437 kts 296°
2026-05-03 21:03 38.02635 60.09328 38010 ft 436 kts 287°
2026-05-03 21:03 38.04257 60.01906 38006 ft 437 kts 285°
2026-05-03 21:04 38.05803 59.94501 38006 ft 437 kts 285°
2026-05-03 21:04 38.07368 59.87061 37995 ft 436 kts 285°
2026-05-03 21:05 38.08949 59.79611 38003 ft 435 kts 285°
2026-05-03 21:05 38.10527 59.72179 38001 ft 436 kts 285°
2026-05-03 21:06 38.12099 59.64745 37995 ft 436 kts 285°
2026-05-03 21:06 38.13669 59.57295 37990 ft 436 kts 285°
2026-05-03 21:07 38.15230 59.49862 37992 ft 435 kts 285°
2026-05-03 21:07 38.16785 59.42427 37987 ft 435 kts 285°
2026-05-03 21:08 38.18337 59.34986 37981 ft 436 kts 285°
2026-05-03 21:08 38.19877 59.27574 37983 ft 437 kts 285°
2026-05-03 21:09 38.21421 59.20113 37977 ft 436 kts 285°
2026-05-03 21:09 38.22961 59.12652 37972 ft 436 kts 285°
2026-05-03 21:10 38.24496 59.05185 37971 ft 436 kts 285°
2026-05-03 21:10 38.26026 58.97721 37970 ft 436 kts 284°
2026-05-03 21:11 38.27552 58.90242 37967 ft 437 kts 284°
2026-05-03 21:11 38.29077 58.82751 37969 ft 437 kts 284°
2026-05-03 21:12 38.30596 58.75257 37967 ft 437 kts 284°
2026-05-03 21:12 38.32109 58.67767 37963 ft 437 kts 284°
2026-05-03 21:13 38.33618 58.60272 37965 ft 437 kts 284°
2026-05-03 21:13 38.35125 58.52757 37958 ft 438 kts 284°
2026-05-03 21:14 38.36627 58.45241 37957 ft 438 kts 284°
2026-05-03 21:14 38.38124 58.37725 37957 ft 437 kts 284°
2026-05-03 21:15 38.39641 58.30217 37949 ft 437 kts 287°
2026-05-03 21:15 38.41863 58.23000 37950 ft 437 kts 292°
2026-05-03 21:16 38.44345 58.15909 37957 ft 438 kts 293°
2026-05-03 21:16 38.46863 58.08842 37955 ft 438 kts 293°
2026-05-03 21:17 38.48951 58.02957 37950 ft 438 kts 293°
2026-05-03 21:17 38.51856 57.94717 37948 ft 438 kts 293°
2026-05-03 21:18 38.54345 57.87625 37953 ft 437 kts 293°
2026-05-03 21:18 38.56829 57.80528 37952 ft 437 kts 293°
2026-05-03 21:19 38.59309 57.73429 37950 ft 437 kts 292°
2026-05-03 21:19 38.61880 57.66378 37952 ft 438 kts 297°
2026-05-03 21:20 38.64977 57.59670 37956 ft 439 kts 299°
2026-05-03 21:20 38.68176 57.53007 37946 ft 439 kts 300°
2026-05-03 21:21 38.71384 57.46355 37942 ft 439 kts 300°
2026-05-03 21:21 38.74582 57.39690 37950 ft 439 kts 299°
2026-05-03 21:22 38.77773 57.33011 37951 ft 439 kts 299°
2026-05-03 21:22 38.80957 57.26329 37951 ft 439 kts 299°
2026-05-03 21:23 38.84139 57.19637 37949 ft 440 kts 299°
2026-05-03 21:23 38.87321 57.12932 37944 ft 440 kts 299°
2026-05-03 21:24 38.90497 57.06226 37945 ft 440 kts 299°
2026-05-03 21:24 38.93669 56.99513 37946 ft 440 kts 299°
2026-05-03 21:25 38.96840 56.92788 37945 ft 440 kts 299°
2026-05-03 21:25 39.00009 56.86053 37953 ft 440 kts 299°
2026-05-03 21:26 39.03157 56.79352 37951 ft 440 kts 299°
2026-05-03 21:26 39.06318 56.72605 37949 ft 440 kts 298°
2026-05-03 21:27 39.09475 56.65854 37947 ft 440 kts 298°
2026-05-03 21:27 39.12633 56.59086 37947 ft 441 kts 298°
2026-05-03 21:28 39.15784 56.52318 37947 ft 441 kts 298°
2026-05-03 21:28 39.18935 56.45537 37947 ft 441 kts 298°
2026-05-03 21:29 39.22082 56.38749 37961 ft 441 kts 298°
2026-05-03 21:29 39.25229 56.31947 37948 ft 441 kts 298°
2026-05-03 21:30 39.28369 56.25144 37950 ft 441 kts 298°
2026-05-03 21:30 39.31502 56.18344 37949 ft 440 kts 298°
2026-05-03 21:31 39.34629 56.11541 37940 ft 441 kts 298°
2026-05-03 21:31 39.37738 56.04759 37949 ft 441 kts 298°
2026-05-03 21:32 39.40865 55.97928 37954 ft 441 kts 298°
2026-05-03 21:32 39.43988 55.91090 37934 ft 441 kts 298°
2026-05-03 21:33 39.47106 55.84248 37956 ft 442 kts 298°
2026-05-03 21:33 39.50232 55.77388 37958 ft 442 kts 298°
2026-05-03 21:34 39.53399 55.70573 37953 ft 441 kts 298°
2026-05-03 21:34 39.56568 55.63774 37956 ft 440 kts 298°
2026-05-03 21:35 39.59725 55.56966 37953 ft 440 kts 298°
2026-05-03 21:35 39.62869 55.50161 37956 ft 440 kts 298°
2026-05-03 21:36 39.66013 55.43335 37953 ft 440 kts 298°
2026-05-03 21:36 39.69006 55.36418 37957 ft 438 kts 292°
2026-05-03 21:37 39.70997 55.28970 37957 ft 436 kts 285°
2026-05-03 21:37 39.72672 55.21401 37957 ft 436 kts 284°
2026-05-03 21:38 39.74294 55.13800 37962 ft 437 kts 284°
2026-05-03 21:38 39.75923 55.06186 37967 ft 438 kts 284°
2026-05-03 21:39 39.77552 54.98599 37974 ft 439 kts 284°
2026-05-03 21:39 39.79193 54.90959 37973 ft 439 kts 284°
2026-05-03 21:40 39.80838 54.83268 37981 ft 439 kts 284°
2026-05-03 21:40 39.82193 54.76911 37981 ft 439 kts 284°
2026-05-03 21:41 39.84096 54.68014 37977 ft 440 kts 284°
2026-05-03 21:41 39.85728 54.60352 37989 ft 440 kts 284°
2026-05-03 21:42 39.87094 54.53923 37989 ft 439 kts 284°
2026-05-03 21:42 39.88716 54.46261 37982 ft 439 kts 284°
2026-05-03 21:43 39.90335 54.38587 37992 ft 439 kts 283°
2026-05-03 21:43 39.91935 54.30899 37987 ft 440 kts 283°
2026-05-03 21:44 39.93528 54.23213 37990 ft 439 kts 283°
2026-05-03 21:44 39.95120 54.15519 37989 ft 439 kts 283°
2026-05-03 21:45 39.96696 54.07884 37999 ft 439 kts 283°
2026-05-03 21:45 39.98279 54.00188 37993 ft 439 kts 283°
2026-05-03 21:46 39.99855 53.92496 37994 ft 439 kts 283°
2026-05-03 21:46 40.01425 53.84802 37996 ft 439 kts 283°
2026-05-03 21:47 40.02990 53.77108 37996 ft 439 kts 283°
2026-05-03 21:47 40.04550 53.69406 38003 ft 439 kts 283°
2026-05-03 21:48 40.06108 53.61689 38001 ft 440 kts 283°
2026-05-03 21:48 40.07663 53.53957 38001 ft 440 kts 283°
2026-05-03 21:49 40.09212 53.46226 38006 ft 440 kts 282°
2026-05-03 21:49 40.10755 53.38494 38008 ft 440 kts 282°
2026-05-03 21:50 40.12294 53.30756 38006 ft 440 kts 282°
2026-05-03 21:50 40.13828 53.23011 38008 ft 440 kts 282°
2026-05-03 21:51 40.15357 53.15260 38006 ft 440 kts 282°
2026-05-03 21:51 40.16880 53.07511 38007 ft 440 kts 282°
2026-05-03 21:52 40.18399 52.99755 38008 ft 440 kts 282°
2026-05-03 21:52 40.19915 52.91985 38009 ft 441 kts 282°
2026-05-03 21:53 40.21423 52.84226 38005 ft 440 kts 282°
2026-05-03 21:53 40.22925 52.76461 38014 ft 440 kts 282°
2026-05-03 21:54 40.24422 52.68697 38026 ft 440 kts 281°
2026-05-03 21:54 40.25916 52.60916 38012 ft 441 kts 281°
2026-05-03 21:55 40.27412 52.53126 38012 ft 441 kts 281°
2026-05-03 21:55 40.28901 52.45332 38020 ft 441 kts 281°
2026-05-03 21:56 40.30383 52.37543 38005 ft 441 kts 281°
2026-05-03 21:56 40.31864 52.29735 38010 ft 442 kts 281°
2026-05-03 21:57 40.33339 52.21920 38011 ft 442 kts 281°
2026-05-03 21:57 40.34803 52.14141 38028 ft 442 kts 281°
2026-05-03 21:58 40.36269 52.06316 38031 ft 442 kts 281°
2026-05-03 21:58 40.37730 51.98488 38014 ft 442 kts 281°
2026-05-03 21:59 40.39188 51.90646 38014 ft 442 kts 281°
2026-05-03 21:59 40.40638 51.82811 38017 ft 442 kts 281°
2026-05-03 22:00 40.42085 51.74965 38030 ft 442 kts 280°
2026-05-03 22:00 40.43527 51.67114 38025 ft 442 kts 280°
2026-05-03 22:01 40.44963 51.59260 38021 ft 443 kts 280°
2026-05-03 22:01 40.46398 51.51377 38021 ft 444 kts 280°
2026-05-03 22:02 40.47899 51.43516 38021 ft 444 kts 282°
2026-05-03 22:02 40.49527 51.35682 38020 ft 445 kts 282°
2026-05-03 22:03 40.51152 51.27843 38040 ft 445 kts 282°
2026-05-03 22:03 40.52751 51.19989 38021 ft 446 kts 281°
2026-05-03 22:04 40.54339 51.12107 38017 ft 446 kts 281°
2026-05-03 22:04 40.55909 51.04282 38025 ft 445 kts 281°
2026-05-03 22:05 40.57484 50.96400 38023 ft 445 kts 281°
2026-05-03 22:05 40.59057 50.88503 38020 ft 446 kts 281°
2026-05-03 22:06 40.60625 50.80595 38020 ft 447 kts 281°
2026-05-03 22:06 40.62188 50.72688 38020 ft 447 kts 281°
2026-05-03 22:07 40.63748 50.64768 38018 ft 447 kts 281°
2026-05-03 22:07 40.65300 50.56853 38021 ft 447 kts 281°
2026-05-03 22:08 40.66848 50.48925 38017 ft 447 kts 281°
2026-05-03 22:08 40.67623 50.44946 38119 ft 448 kts 281°
2026-05-03 22:08 40.68398 50.40972 38357 ft 446 kts 281°
2026-05-03 22:09 40.69164 50.37031 38609 ft 444 kts 281°
2026-05-03 22:09 40.69925 50.33094 38797 ft 443 kts 281°
2026-05-03 22:09 40.70682 50.29157 38922 ft 443 kts 281°
2026-05-03 22:10 40.72190 50.21285 39168 ft 443 kts 281°
2026-05-03 22:10 40.72943 50.17351 39278 ft 443 kts 281°
2026-05-03 22:10 40.73696 50.13408 39379 ft 443 kts 280°
2026-05-03 22:10 40.74448 50.09465 39480 ft 443 kts 280°
2026-05-03 22:11 40.75200 50.05520 39583 ft 443 kts 280°
2026-05-03 22:11 40.76699 49.97625 39785 ft 444 kts 280°
2026-05-03 22:12 40.78184 49.89775 39967 ft 444 kts 280°
2026-05-03 22:12 40.79676 49.81848 40030 ft 446 kts 280°
2026-05-03 22:13 40.81169 49.73891 40029 ft 446 kts 280°
2026-05-03 22:13 40.82654 49.65944 40028 ft 446 kts 280°
2026-05-03 22:14 40.84133 49.57992 40029 ft 446 kts 280°
2026-05-03 22:14 40.85608 49.50034 40030 ft 446 kts 280°
2026-05-03 22:15 40.87082 49.42043 40037 ft 448 kts 280°
2026-05-03 22:15 40.88551 49.34047 40038 ft 448 kts 280°
2026-05-03 22:16 40.89962 49.26025 40031 ft 448 kts 279°
2026-05-03 22:16 40.91301 49.17994 40042 ft 447 kts 278°
2026-05-03 22:17 40.92643 49.09944 40020 ft 449 kts 278°
2026-05-03 22:17 40.93995 49.01879 40023 ft 449 kts 279°
2026-05-03 22:18 40.95337 48.93869 40010 ft 449 kts 278°
2026-05-03 22:18 40.96683 48.85803 39999 ft 448 kts 278°
2026-05-03 22:19 40.98022 48.77738 39997 ft 449 kts 278°
2026-05-03 22:19 40.99357 48.69653 39998 ft 450 kts 278°
2026-05-03 22:20 41.00688 48.61564 39991 ft 449 kts 278°
2026-05-03 22:20 41.02005 48.53529 39983 ft 445 kts 278°
2026-05-03 22:21 41.03309 48.45518 39981 ft 445 kts 278°
2026-05-03 22:21 41.04606 48.37510 39963 ft 444 kts 278°
2026-05-03 22:22 41.05899 48.29501 39970 ft 445 kts 278°
2026-05-03 22:22 41.07187 48.21492 39969 ft 444 kts 278°
2026-05-03 22:23 41.08460 48.13524 39969 ft 444 kts 278°
2026-05-03 22:23 41.09735 48.05506 39968 ft 444 kts 278°
2026-05-03 22:24 41.11013 47.97469 39969 ft 447 kts 278°
2026-05-03 22:24 41.12288 47.89410 39968 ft 447 kts 278°
2026-05-03 22:25 41.13550 47.81335 39974 ft 446 kts 278°
2026-05-03 22:25 41.14807 47.73272 39968 ft 447 kts 278°
2026-05-03 22:26 41.15851 47.66547 39962 ft 448 kts 278°
2026-05-03 22:26 41.17106 47.58446 39988 ft 449 kts 278°
2026-05-03 22:27 41.18354 47.50345 39999 ft 448 kts 278°
2026-05-03 22:27 41.19596 47.42247 39981 ft 447 kts 278°
2026-05-03 22:28 41.20836 47.34139 40028 ft 448 kts 278°
2026-05-03 22:28 41.22067 47.26015 40028 ft 449 kts 278°
2026-05-03 22:29 41.23293 47.17883 40033 ft 449 kts 278°
2026-05-03 22:29 41.24515 47.09755 40030 ft 449 kts 277°
2026-05-03 22:30 41.25734 47.01614 40047 ft 449 kts 277°
2026-05-03 22:30 41.26945 46.93474 40046 ft 450 kts 277°
2026-05-03 22:31 41.28153 46.85308 40050 ft 451 kts 277°
2026-05-03 22:31 41.29357 46.77132 40051 ft 451 kts 277°
2026-05-03 22:32 41.30544 46.68948 40052 ft 450 kts 277°
2026-05-03 22:32 41.31688 46.60749 40070 ft 450 kts 277°
2026-05-03 22:33 41.32813 46.52615 40048 ft 451 kts 277°
2026-05-03 22:33 41.33952 46.44389 40049 ft 452 kts 277°
2026-05-03 22:34 41.35089 46.36159 40041 ft 452 kts 277°
2026-05-03 22:34 41.36221 46.27917 40042 ft 452 kts 277°
2026-05-03 22:35 41.37346 46.19686 40044 ft 452 kts 277°
2026-05-03 22:35 41.38468 46.11422 40040 ft 454 kts 277°
2026-05-03 22:36 41.39586 46.03148 40035 ft 454 kts 277°
2026-05-03 22:36 41.40696 45.94882 40034 ft 453 kts 277°
2026-05-03 22:37 41.41800 45.86613 40026 ft 453 kts 277°
2026-05-03 22:37 41.42899 45.78335 40026 ft 455 kts 277°
2026-05-03 22:38 41.43997 45.70016 40027 ft 456 kts 276°
2026-05-03 22:38 41.45083 45.61746 40025 ft 456 kts 276°
2026-05-03 22:39 41.46170 45.53415 40016 ft 456 kts 276°
2026-05-03 22:39 41.47252 45.45079 40023 ft 456 kts 276°
2026-05-03 22:40 41.48330 45.36722 40015 ft 458 kts 276°
2026-05-03 22:40 41.49192 45.28318 40010 ft 457 kts 273°
2026-05-03 22:41 41.49799 45.19878 40007 ft 457 kts 272°
2026-05-03 22:41 41.50417 45.11438 40006 ft 457 kts 273°
2026-05-03 22:42 41.51077 45.02990 40014 ft 458 kts 273°
2026-05-03 22:42 41.51753 44.94524 40000 ft 460 kts 273°
2026-05-03 22:43 41.52424 44.86095 40003 ft 459 kts 271°
2026-05-03 22:43 41.53089 44.77644 40000 ft 456 kts 271°
2026-05-03 22:44 41.53740 44.69225 40007 ft 456 kts 271°
2026-05-03 22:44 41.54385 44.60809 40011 ft 456 kts 271°
2026-05-03 22:45 41.55024 44.52392 40008 ft 456 kts 271°
2026-05-03 22:45 41.55657 44.43973 40011 ft 456 kts 271°
2026-05-03 22:46 41.56284 44.35559 39998 ft 456 kts 271°
2026-05-03 22:46 41.56988 44.27151 39995 ft 458 kts 276°
2026-05-03 22:47 41.58961 44.18990 39986 ft 469 kts 291°
2026-05-03 22:47 41.61960 44.11207 39955 ft 472 kts 293°
2026-05-03 22:48 41.65125 44.03498 39954 ft 473 kts 293°
2026-05-03 22:48 41.68288 43.95786 39952 ft 473 kts 293°
2026-05-03 22:49 41.71427 43.88040 39908 ft 474 kts 293°
2026-05-03 22:49 41.74555 43.80267 39894 ft 474 kts 293°
2026-05-03 22:50 41.77678 43.72481 39900 ft 474 kts 293°
2026-05-03 22:50 41.80796 43.64684 39871 ft 476 kts 293°
2026-05-03 22:51 41.83921 43.56856 39843 ft 476 kts 293°
2026-05-03 22:51 41.87045 43.49022 39827 ft 476 kts 294°
2026-05-03 22:52 41.90161 43.41173 39833 ft 477 kts 294°
2026-05-03 22:52 41.93281 43.33278 39809 ft 479 kts 294°
2026-05-03 22:53 41.96406 43.25360 39784 ft 479 kts 294°
2026-05-03 22:53 41.99507 43.17485 39783 ft 479 kts 294°
2026-05-03 22:54 42.02522 43.09485 39764 ft 478 kts 288°
2026-05-03 22:54 42.04161 43.00914 39733 ft 470 kts 271°
2026-05-03 22:55 42.03769 42.92254 39731 ft 462 kts 254°
2026-05-03 22:55 42.01621 42.84161 39713 ft 459 kts 245°
2026-05-03 22:56 41.99042 42.76331 39687 ft 457 kts 244°
2026-05-03 22:56 41.96418 42.68528 39685 ft 458 kts 244°
2026-05-03 22:57 41.93821 42.60718 39691 ft 458 kts 244°
2026-05-03 22:57 41.91239 42.52899 39695 ft 459 kts 244°
2026-05-03 22:58 41.88648 42.45057 39696 ft 460 kts 244°
2026-05-03 22:58 41.86048 42.37216 39708 ft 460 kts 244°
2026-05-03 22:59 41.83456 42.29421 39707 ft 459 kts 243°
2026-05-03 22:59 41.80850 42.21617 39731 ft 456 kts 243°
2026-05-03 23:00 41.78262 42.13881 39744 ft 454 kts 243°
2026-05-03 23:00 41.75682 42.06185 39745 ft 453 kts 243°
2026-05-03 23:01 41.73092 41.98490 39765 ft 453 kts 243°
2026-05-03 23:01 41.70501 41.90808 39780 ft 452 kts 243°
2026-05-03 23:02 41.67911 41.83152 39791 ft 452 kts 243°
2026-05-03 23:02 41.65313 41.75496 39798 ft 452 kts 243°
2026-05-03 23:03 41.62712 41.67851 39807 ft 452 kts 243°
2026-05-03 23:03 41.60113 41.60230 39800 ft 450 kts 243°
2026-05-03 23:04 41.57515 41.52633 39800 ft 450 kts 242°
2026-05-03 23:04 41.55604 41.44649 39800 ft 456 kts 256°
2026-05-03 23:05 41.55359 41.36122 39822 ft 465 kts 268°
2026-05-03 23:05 41.55813 41.27470 39810 ft 469 kts 270°
2026-05-03 23:06 41.56363 41.18783 39797 ft 470 kts 270°
2026-05-03 23:06 41.56885 41.10082 39791 ft 470 kts 269°
2026-05-03 23:07 41.57374 41.01390 39802 ft 470 kts 269°
2026-05-03 23:07 41.57844 40.92752 39779 ft 469 kts 269°
2026-05-03 23:08 41.58312 40.84016 39782 ft 469 kts 269°
2026-05-03 23:08 41.58772 40.75322 39789 ft 469 kts 269°
2026-05-03 23:09 41.59224 40.66687 39779 ft 468 kts 269°
2026-05-03 23:09 41.59675 40.58008 39780 ft 469 kts 269°
2026-05-03 23:10 41.60116 40.49305 39785 ft 470 kts 269°
2026-05-03 23:10 41.60549 40.40590 39784 ft 470 kts 269°
2026-05-03 23:11 41.60908 40.33287 39779 ft 470 kts 268°
2026-05-03 23:11 41.61332 40.24576 39777 ft 470 kts 268°
2026-05-03 23:12 41.61749 40.15852 39782 ft 470 kts 268°
2026-05-03 23:12 41.62160 40.07102 39779 ft 473 kts 268°
2026-05-03 23:13 41.62567 39.98329 39782 ft 473 kts 268°
2026-05-03 23:13 41.62967 39.89558 39779 ft 473 kts 268°
2026-05-03 23:14 41.63361 39.80783 39780 ft 473 kts 268°
2026-05-03 23:14 41.63747 39.71996 39787 ft 475 kts 268°
2026-05-03 23:15 41.64126 39.63223 39783 ft 475 kts 268°
2026-05-03 23:15 41.64504 39.54396 39786 ft 476 kts 268°
2026-05-03 23:16 41.64874 39.45536 39787 ft 477 kts 268°
2026-05-03 23:16 41.65233 39.36679 39793 ft 478 kts 268°
2026-05-03 23:17 41.65587 39.27798 39783 ft 478 kts 268°
2026-05-03 23:17 41.65937 39.18913 39784 ft 478 kts 268°
2026-05-03 23:18 41.66279 39.10032 39787 ft 478 kts 268°
2026-05-03 23:18 41.66615 39.01143 39791 ft 478 kts 268°
2026-05-03 23:19 41.66943 38.92258 39787 ft 479 kts 268°
2026-05-03 23:19 41.67263 38.83409 39785 ft 479 kts 268°
2026-05-03 23:20 41.67579 38.74504 39786 ft 479 kts 268°
2026-05-03 23:20 41.67888 38.65603 39788 ft 479 kts 268°
2026-05-03 23:21 41.68190 38.56690 39790 ft 479 kts 268°
2026-05-03 23:21 41.68485 38.47770 39794 ft 480 kts 268°
2026-05-03 23:22 41.68915 38.34377 39799 ft 481 kts 267°
2026-05-03 23:22 41.69194 38.25433 39794 ft 481 kts 267°
2026-05-03 23:23 41.69466 38.16486 39795 ft 481 kts 267°
2026-05-03 23:23 41.69731 38.07545 39789 ft 481 kts 267°
2026-05-03 23:24 41.69989 37.98588 39790 ft 482 kts 267°
2026-05-03 23:24 41.70240 37.89633 39802 ft 482 kts 267°
2026-05-03 23:25 41.70485 37.80669 39806 ft 482 kts 267°
2026-05-03 23:25 41.70722 37.71705 39809 ft 483 kts 267°
2026-05-03 23:26 41.70953 37.62712 39799 ft 484 kts 267°
2026-05-03 23:26 41.71177 37.53692 39799 ft 484 kts 267°
2026-05-03 23:27 41.71392 37.44741 39798 ft 484 kts 267°
2026-05-03 23:27 41.71602 37.35727 39801 ft 484 kts 267°
2026-05-03 23:28 41.71805 37.26716 39800 ft 484 kts 267°
2026-05-03 23:28 41.72000 37.17702 39802 ft 485 kts 267°
2026-05-03 23:29 41.72188 37.08655 39799 ft 487 kts 267°
2026-05-03 23:29 41.72371 36.99610 39799 ft 487 kts 267°
2026-05-03 23:30 41.72547 36.90539 39801 ft 487 kts 267°
2026-05-03 23:30 41.72715 36.81473 39799 ft 488 kts 267°
2026-05-03 23:31 41.72877 36.72378 39801 ft 488 kts 267°
2026-05-03 23:31 41.73032 36.63288 39802 ft 488 kts 267°
2026-05-03 23:32 41.73179 36.54201 39799 ft 489 kts 267°
2026-05-03 23:32 41.73319 36.45089 39809 ft 489 kts 267°
2026-05-03 23:33 41.73452 36.35962 39801 ft 491 kts 267°
2026-05-03 23:33 41.73579 36.26822 39801 ft 491 kts 267°
2026-05-03 23:34 41.73698 36.17732 39800 ft 491 kts 267°
2026-05-03 23:34 41.73810 36.08592 39798 ft 491 kts 267°
2026-05-03 23:35 41.73915 35.99457 39808 ft 491 kts 267°
2026-05-03 23:35 41.74012 35.90304 39796 ft 491 kts 267°
2026-05-03 23:36 41.74102 35.81164 39796 ft 491 kts 266°
2026-05-03 23:36 41.74186 35.72015 39799 ft 491 kts 266°
2026-05-03 23:37 41.74261 35.62864 39804 ft 491 kts 266°
2026-05-03 23:37 41.74330 35.53722 39798 ft 491 kts 266°
2026-05-03 23:38 41.74391 35.44575 39805 ft 491 kts 266°
2026-05-03 23:38 41.74445 35.35420 39806 ft 492 kts 266°
2026-05-03 23:39 41.74492 35.26317 39814 ft 492 kts 266°
2026-05-03 23:39 41.74531 35.17150 39814 ft 493 kts 266°
2026-05-03 23:40 41.74563 35.07964 39818 ft 493 kts 266°
2026-05-03 23:40 41.74589 34.98775 39821 ft 493 kts 266°
2026-05-03 23:41 41.74606 34.89586 39822 ft 493 kts 266°
2026-05-03 23:41 41.74617 34.80405 39848 ft 493 kts 266°
2026-05-03 23:42 41.74620 34.71200 39828 ft 494 kts 266°
2026-05-03 23:42 41.74718 34.61991 39828 ft 497 kts 272°
2026-05-03 23:43 41.76151 34.52899 39830 ft 502 kts 282°
2026-05-03 23:43 41.78192 34.43935 39834 ft 503 kts 284°
2026-05-03 23:44 41.80323 34.34991 39831 ft 504 kts 284°
2026-05-03 23:44 41.82435 34.26039 39836 ft 504 kts 284°
2026-05-03 23:45 41.84521 34.17068 39834 ft 503 kts 284°
2026-05-03 23:45 41.86591 34.08098 39843 ft 504 kts 284°
2026-05-03 23:46 41.88642 33.99169 39842 ft 504 kts 284°
2026-05-03 23:46 41.90704 33.90163 39846 ft 505 kts 284°
2026-05-03 23:47 41.92758 33.81152 39859 ft 505 kts 284°
2026-05-03 23:47 41.94810 33.72124 39858 ft 505 kts 284°
2026-05-03 23:48 41.96746 33.63054 39859 ft 504 kts 282°
2026-05-03 23:48 41.98453 33.53905 39860 ft 504 kts 281°
2026-05-03 23:49 42.00148 33.44762 39860 ft 504 kts 281°
2026-05-03 23:49 42.01874 33.35619 39858 ft 504 kts 282°
2026-05-03 23:50 42.03319 33.28018 39857 ft 504 kts 282°
2026-05-03 23:50 42.05343 33.17339 39864 ft 504 kts 282°
2026-05-03 23:51 42.07065 33.08202 39859 ft 503 kts 282°
2026-05-03 23:51 42.08864 32.99098 39858 ft 503 kts 283°
2026-05-03 23:52 42.10751 32.90016 39857 ft 503 kts 283°
2026-05-03 23:52 42.12615 32.80986 39864 ft 504 kts 282°
2026-05-03 23:53 42.14469 32.71859 39866 ft 506 kts 283°
2026-05-03 23:53 42.16312 32.62729 39863 ft 505 kts 282°
2026-05-03 23:54 42.18150 32.53582 39866 ft 506 kts 283°
2026-05-03 23:54 42.19677 32.45903 39878 ft 505 kts 283°
2026-05-03 23:55 42.21478 32.36824 39875 ft 505 kts 282°
2026-05-03 23:55 42.23290 32.27654 39878 ft 506 kts 283°
2026-05-03 23:56 42.25095 32.18489 39894 ft 505 kts 283°
2026-05-03 23:56 42.26895 32.09310 39894 ft 507 kts 283°
2026-05-03 23:57 42.28690 32.00109 39894 ft 505 kts 282°
2026-05-03 23:57 42.30475 31.90928 39905 ft 506 kts 283°
2026-05-03 23:58 42.32255 31.81731 39912 ft 506 kts 283°
2026-05-03 23:58 42.34026 31.72554 39913 ft 505 kts 282°
2026-05-03 23:59 42.35792 31.63351 39921 ft 506 kts 283°
2026-05-03 23:59 42.37549 31.54156 39909 ft 505 kts 282°
2026-05-04 00:00 42.39299 31.44962 39930 ft 506 kts 282°
2026-05-04 00:00 42.41036 31.35773 39927 ft 507 kts 283°
2026-05-04 00:01 42.42770 31.26566 39930 ft 505 kts 281°
2026-05-04 00:01 42.44500 31.17327 39931 ft 506 kts 281°
2026-05-04 00:02 42.46223 31.08101 39933 ft 505 kts 281°
2026-05-04 00:02 42.47935 30.98862 39944 ft 507 kts 281°
2026-05-04 00:03 42.49640 30.89591 39941 ft 506 kts 282°
2026-05-04 00:03 42.51335 30.80350 39949 ft 504 kts 281°
2026-05-04 00:04 42.53021 30.71118 39952 ft 504 kts 282°
2026-05-04 00:04 42.54695 30.61908 39952 ft 503 kts 282°
2026-05-04 00:05 42.56362 30.52686 39964 ft 504 kts 282°
2026-05-04 00:05 42.58018 30.43476 39962 ft 500 kts 282°
2026-05-04 00:06 42.59662 30.34315 39964 ft 500 kts 282°
2026-05-04 00:06 42.62259 30.25559 39973 ft 503 kts 300°
2026-05-04 00:07 42.66495 30.18035 39980 ft 502 kts 310°
2026-05-04 00:07 42.71117 30.10950 39988 ft 501 kts 311°
2026-05-04 00:08 42.75786 30.03914 39988 ft 500 kts 311°
2026-05-04 00:08 42.80419 29.96862 39995 ft 499 kts 311°
2026-05-04 00:09 42.85032 29.89776 39998 ft 500 kts 311°
2026-05-04 00:09 42.89605 29.82722 40010 ft 499 kts 311°
2026-05-04 00:10 42.94199 29.75620 40013 ft 499 kts 311°
2026-05-04 00:10 42.98794 29.68496 40015 ft 500 kts 311°
2026-05-04 00:11 43.03392 29.61355 40015 ft 501 kts 311°
2026-05-04 00:11 43.07991 29.54195 40017 ft 501 kts 311°
2026-05-04 00:12 43.12590 29.47016 40029 ft 502 kts 311°
2026-05-04 00:12 43.17184 29.39829 40029 ft 500 kts 311°
2026-05-04 00:13 43.21757 29.32655 40030 ft 499 kts 311°
2026-05-04 00:13 43.26318 29.25481 40039 ft 499 kts 311°
2026-05-04 00:14 43.30877 29.18293 40038 ft 499 kts 311°
2026-05-04 00:14 43.35441 29.11081 40037 ft 500 kts 311°
2026-05-04 00:15 43.39989 29.03876 40044 ft 498 kts 311°
2026-05-04 00:15 43.44518 28.96681 40070 ft 497 kts 311°
2026-05-04 00:16 43.49047 28.89468 40058 ft 498 kts 311°
2026-05-04 00:16 43.53546 28.82288 40056 ft 498 kts 311°
2026-05-04 00:17 43.58074 28.75042 40088 ft 499 kts 311°
2026-05-04 00:17 43.62600 28.67781 40075 ft 498 kts 311°
2026-05-04 00:18 43.67108 28.60530 40064 ft 497 kts 312°
2026-05-04 00:18 43.71628 28.53247 40081 ft 501 kts 311°
2026-05-04 00:19 43.76514 28.46425 40083 ft 498 kts 317°
2026-05-04 00:19 43.81605 28.39928 40087 ft 497 kts 319°
2026-05-04 00:20 43.86720 28.33483 40089 ft 497 kts 319°
2026-05-04 00:20 43.91844 28.27009 40073 ft 499 kts 319°
2026-05-04 00:21 43.96978 28.20494 40090 ft 500 kts 318°
2026-05-04 00:21 44.02113 28.13952 40083 ft 500 kts 318°
2026-05-04 00:22 44.07205 28.07449 40085 ft 500 kts 318°
2026-05-04 00:22 44.12316 28.00906 40093 ft 499 kts 318°
2026-05-04 00:23 44.17424 27.94352 40095 ft 499 kts 318°
2026-05-04 00:23 44.22532 27.87782 40093 ft 499 kts 318°
2026-05-04 00:24 44.27619 27.81221 40095 ft 496 kts 318°
2026-05-04 00:24 44.32677 27.74682 40096 ft 496 kts 318°
2026-05-04 00:25 44.37731 27.68131 40097 ft 496 kts 318°
2026-05-04 00:25 44.42800 27.61546 40097 ft 496 kts 318°
2026-05-04 00:26 44.47854 27.54964 40099 ft 496 kts 318°
2026-05-04 00:26 44.52898 27.48378 40100 ft 496 kts 318°
2026-05-04 00:27 44.57937 27.41783 40097 ft 495 kts 318°
2026-05-04 00:27 44.62968 27.35181 40098 ft 495 kts 318°
2026-05-04 00:28 44.67999 27.28563 40099 ft 495 kts 318°
2026-05-04 00:28 44.73019 27.21943 40099 ft 495 kts 318°
2026-05-04 00:29 44.78009 27.15348 40102 ft 495 kts 318°
2026-05-04 00:29 44.83023 27.08702 40105 ft 495 kts 318°
2026-05-04 00:30 44.88037 27.02041 40103 ft 495 kts 318°
2026-05-04 00:30 44.93049 26.95365 40108 ft 495 kts 318°
2026-05-04 00:31 44.98056 26.88679 40101 ft 495 kts 318°
2026-05-04 00:31 45.03053 26.81989 40105 ft 494 kts 318°
2026-05-04 00:32 45.08044 26.75291 40116 ft 494 kts 318°
2026-05-04 00:32 45.13027 26.68587 40120 ft 494 kts 317°
2026-05-04 00:33 45.20483 26.58522 40130 ft 492 kts 318°
2026-05-04 00:34 45.25433 26.51820 40140 ft 492 kts 318°
2026-05-04 00:34 45.30381 26.45103 40140 ft 492 kts 317°
2026-05-04 00:35 45.35328 26.38370 40152 ft 492 kts 318°
2026-05-04 00:35 45.40225 26.31688 40158 ft 491 kts 318°
2026-05-04 00:36 45.45180 26.24911 40158 ft 491 kts 317°
2026-05-04 00:36 45.50099 26.18166 40162 ft 491 kts 317°
2026-05-04 00:37 45.54974 26.11464 40177 ft 490 kts 318°
2026-05-04 00:37 45.59871 26.04715 40173 ft 489 kts 317°
2026-05-04 00:38 45.64779 25.97932 40163 ft 491 kts 317°
2026-05-04 00:38 45.69694 25.91121 40167 ft 492 kts 317°
2026-05-04 00:39 45.74596 25.84311 40151 ft 491 kts 317°
2026-05-04 00:39 45.79486 25.77500 40147 ft 490 kts 317°
2026-05-04 00:40 45.83548 25.71830 40145 ft 490 kts 317°
2026-05-04 00:40 45.88437 25.64989 40139 ft 490 kts 317°
2026-05-04 00:41 45.93305 25.58160 40151 ft 489 kts 317°
2026-05-04 00:41 45.98164 25.51325 40160 ft 488 kts 317°
2026-05-04 00:42 46.03013 25.44488 40168 ft 488 kts 317°
2026-05-04 00:42 46.07860 25.37634 40168 ft 488 kts 318°
2026-05-04 00:43 46.12684 25.30796 40175 ft 485 kts 318°
2026-05-04 00:43 46.17493 25.23962 40176 ft 485 kts 318°
2026-05-04 00:44 46.22289 25.17128 40173 ft 485 kts 318°
2026-05-04 00:44 46.27088 25.10273 40173 ft 485 kts 318°
2026-05-04 00:45 46.31872 25.03421 40169 ft 484 kts 318°
2026-05-04 00:45 46.36647 24.96563 40168 ft 484 kts 318°
2026-05-04 00:46 46.41388 24.89737 40176 ft 484 kts 318°
2026-05-04 00:46 46.46158 24.82851 40166 ft 484 kts 318°
2026-05-04 00:47 46.50929 24.75944 40167 ft 484 kts 318°
2026-05-04 00:47 46.55694 24.69032 40164 ft 484 kts 318°
2026-05-04 00:48 46.60458 24.62100 40162 ft 484 kts 317°
2026-05-04 00:48 46.65216 24.55158 40166 ft 484 kts 317°
2026-05-04 00:49 46.69969 24.48206 40166 ft 484 kts 317°
2026-05-04 00:49 46.74714 24.41248 40166 ft 484 kts 317°
2026-05-04 00:50 46.79457 24.34273 40174 ft 484 kts 317°
2026-05-04 00:50 46.84198 24.27284 40171 ft 486 kts 317°
2026-05-04 00:51 46.88953 24.20255 40170 ft 486 kts 317°
2026-05-04 00:51 46.93704 24.13211 40167 ft 486 kts 317°
2026-05-04 00:52 46.98452 24.06154 40167 ft 487 kts 317°
2026-05-04 00:52 47.03198 23.99082 40166 ft 486 kts 317°
2026-05-04 00:53 47.07936 23.92002 40170 ft 487 kts 316°
2026-05-04 00:53 47.12674 23.84903 40170 ft 486 kts 316°
2026-05-04 00:54 47.17381 23.77832 40170 ft 486 kts 316°
2026-05-04 00:54 47.22100 23.70721 40169 ft 484 kts 316°
2026-05-04 00:55 47.26789 23.63639 40168 ft 482 kts 316°
2026-05-04 00:55 47.31467 23.56554 40170 ft 482 kts 316°
2026-05-04 00:56 47.36140 23.49458 40167 ft 482 kts 316°
2026-05-04 00:56 47.40807 23.42351 40170 ft 481 kts 316°
2026-05-04 00:57 47.45455 23.35253 40171 ft 480 kts 316°
2026-05-04 00:57 47.50095 23.28149 40167 ft 480 kts 316°
2026-05-04 00:58 47.54726 23.21039 40164 ft 480 kts 316°
2026-05-04 00:58 47.59355 23.13914 40160 ft 479 kts 316°
2026-05-04 00:59 47.63962 23.06800 40159 ft 478 kts 316°
2026-05-04 00:59 47.68564 22.99677 40158 ft 478 kts 316°
2026-05-04 01:00 47.73160 22.92545 40155 ft 478 kts 315°
2026-05-04 01:00 47.77748 22.85404 40156 ft 478 kts 315°
2026-05-04 01:01 47.82328 22.78256 40158 ft 477 kts 315°
2026-05-04 01:01 47.86907 22.71092 40154 ft 477 kts 315°
2026-05-04 01:02 47.91478 22.63920 40153 ft 477 kts 315°
2026-05-04 01:03 48.00259 22.50087 40148 ft 476 kts 315°
2026-05-04 01:03 48.04803 22.42897 40145 ft 476 kts 315°
2026-05-04 01:04 48.09341 22.35700 40144 ft 476 kts 315°
2026-05-04 01:04 48.13877 22.28485 40144 ft 475 kts 315°
2026-05-04 01:05 48.18392 22.21283 40150 ft 474 kts 315°
2026-05-04 01:05 48.22900 22.14073 40150 ft 473 kts 315°
2026-05-04 01:06 48.27400 22.06857 40149 ft 473 kts 315°
2026-05-04 01:06 48.32176 22.00094 40152 ft 471 kts 326°
2026-05-04 01:07 48.37934 21.95539 40147 ft 467 kts 342°
2026-05-04 01:07 48.44256 21.93938 40139 ft 464 kts
2026-05-04 01:08 48.50706 21.94487 40145 ft 465 kts
2026-05-04 01:08 48.57147 21.95395 40149 ft 465 kts
2026-05-04 01:09 48.63590 21.96321 40148 ft 465 kts
2026-05-04 01:09 48.70044 21.97205 40150 ft 465 kts
2026-05-04 01:10 48.76493 21.98068 40144 ft 465 kts
2026-05-04 01:10 48.82947 21.98928 40140 ft 466 kts
2026-05-04 01:11 48.89408 21.99793 40149 ft 466 kts
2026-05-04 01:11 48.95860 22.00661 40146 ft 466 kts
2026-05-04 01:12 49.02317 22.01532 40152 ft 466 kts
2026-05-04 01:12 49.08782 22.02407 40138 ft 466 kts
2026-05-04 01:13 49.15236 22.03282 40143 ft 466 kts
2026-05-04 01:13 49.21652 22.04154 40141 ft 466 kts
2026-05-04 01:14 49.28111 22.05034 40142 ft 466 kts
2026-05-04 01:14 49.34582 22.05918 40138 ft 467 kts
2026-05-04 01:15 49.41049 22.06805 40139 ft 466 kts
2026-05-04 01:15 49.47515 22.07693 40127 ft 467 kts
2026-05-04 01:16 49.53990 22.08585 40128 ft 467 kts
2026-05-04 01:16 49.60468 22.09479 40127 ft 467 kts
2026-05-04 01:17 49.66944 22.10376 40112 ft 467 kts
2026-05-04 01:17 49.73411 22.11274 40113 ft 467 kts
2026-05-04 01:18 49.79888 22.12176 40104 ft 467 kts
2026-05-04 01:18 49.86366 22.13080 40109 ft 467 kts
2026-05-04 01:19 49.92844 22.13987 40087 ft 467 kts
2026-05-04 01:19 49.99331 22.14898 40076 ft 468 kts
2026-05-04 01:20 50.05771 22.15804 40076 ft 468 kts
2026-05-04 01:20 50.12261 22.16720 40070 ft 468 kts
2026-05-04 01:21 50.18750 22.17638 40080 ft 468 kts
2026-05-04 01:21 50.25241 22.18559 40075 ft 468 kts
2026-05-04 01:22 50.31733 22.19483 40079 ft 468 kts
2026-05-04 01:22 50.38231 22.20410 40080 ft 468 kts
2026-05-04 01:23 50.44724 22.21339 40080 ft 469 kts
2026-05-04 01:23 50.51221 22.22271 40076 ft 469 kts
2026-05-04 01:24 50.57716 22.23205 40078 ft 469 kts
2026-05-04 01:24 50.64175 22.24137 40083 ft 469 kts
2026-05-04 01:25 50.70713 22.25083 40086 ft 469 kts
2026-05-04 01:25 50.77219 22.26027 40068 ft 469 kts
2026-05-04 01:26 50.83677 22.26966 40069 ft 469 kts
2026-05-04 01:26 50.90181 22.27915 40070 ft 469 kts
2026-05-04 01:27 50.96690 22.28867 40061 ft 470 kts
2026-05-04 01:27 51.03196 22.29822 40057 ft 470 kts
2026-05-04 01:28 51.09712 22.30780 40054 ft 470 kts
2026-05-04 01:28 51.16227 22.31741 40060 ft 470 kts
2026-05-04 01:29 51.22745 22.32705 40058 ft 470 kts
2026-05-04 01:29 51.29268 22.33673 40046 ft 470 kts
2026-05-04 01:30 51.35742 22.34636 40056 ft 470 kts
2026-05-04 01:30 51.42263 22.35609 40054 ft 470 kts
2026-05-04 01:31 51.48783 22.36585 40056 ft 470 kts
2026-05-04 01:31 51.55303 22.37563 40047 ft 470 kts
2026-05-04 01:32 51.61828 22.38545 40050 ft 471 kts
2026-05-04 01:32 51.68345 22.39529 40038 ft 471 kts
2026-05-04 01:33 51.74826 22.40510 40033 ft 471 kts
2026-05-04 01:33 51.81350 22.41501 40028 ft 471 kts
2026-05-04 01:34 51.87884 22.42496 40033 ft 472 kts
2026-05-04 01:34 51.94429 22.43495 40028 ft 473 kts
2026-05-04 01:35 52.00976 22.44497 40021 ft 473 kts
2026-05-04 01:35 52.07521 22.45502 40021 ft 473 kts
2026-05-04 01:36 52.14076 22.46512 40024 ft 473 kts
2026-05-04 01:36 52.20626 22.47524 40018 ft 473 kts
2026-05-04 01:37 52.27185 22.48540 40015 ft 473 kts
2026-05-04 01:37 52.33713 22.49555 40018 ft 473 kts
2026-05-04 01:38 52.40282 22.50579 40013 ft 474 kts
2026-05-04 01:38 52.46843 22.51604 40012 ft 474 kts
2026-05-04 01:39 52.53410 22.52634 40007 ft 474 kts
2026-05-04 01:39 52.59982 22.53668 39976 ft 476 kts
2026-05-04 01:40 52.66574 22.55047 40243 ft 477 kts
2026-05-04 01:40 52.69838 22.56058 40416 ft 477 kts 10°
2026-05-04 01:40 52.73090 22.57129 40554 ft 477 kts 10°
2026-05-04 01:40 52.76347 22.58199 40684 ft 477 kts 10°
2026-05-04 01:41 52.79608 22.59241 40804 ft 478 kts
2026-05-04 01:41 52.82841 22.60245 40913 ft 478 kts
2026-05-04 01:41 52.86114 22.61240 40993 ft 479 kts
2026-05-04 01:42 52.92671 22.63201 40996 ft 479 kts
2026-05-04 01:42 52.99233 22.65159 40985 ft 479 kts
2026-05-04 01:43 53.05791 22.67127 40988 ft 479 kts
2026-05-04 01:43 53.12350 22.69104 40986 ft 479 kts
2026-05-04 01:44 53.18909 22.71089 40985 ft 479 kts
2026-05-04 01:44 53.25475 22.73082 40985 ft 479 kts
2026-05-04 01:45 53.30935 22.74743 40982 ft 479 kts
2026-05-04 01:45 53.40782 22.77751 40975 ft 480 kts
2026-05-04 01:46 53.47349 22.79765 40974 ft 480 kts
2026-05-04 01:46 53.53911 22.81784 40973 ft 480 kts
2026-05-04 01:47 53.61556 22.84144 40969 ft 481 kts
2026-05-04 01:47 53.67081 22.85854 40968 ft 482 kts
2026-05-04 01:48 53.73668 22.87900 40966 ft 482 kts
2026-05-04 01:48 53.80229 22.89944 40963 ft 482 kts
2026-05-04 01:49 53.86821 22.92004 40960 ft 482 kts
2026-05-04 01:49 53.93424 22.94075 40960 ft 482 kts
2026-05-04 01:50 54.00017 22.96149 40957 ft 482 kts
2026-05-04 01:50 54.06612 22.98230 40958 ft 482 kts
2026-05-04 01:51 54.13208 23.00319 40950 ft 482 kts
2026-05-04 01:51 54.19812 23.02416 40944 ft 483 kts
2026-05-04 01:52 54.26419 23.04521 40942 ft 483 kts
2026-05-04 01:52 54.33024 23.06633 40935 ft 483 kts
2026-05-04 01:53 54.39624 23.08752 40933 ft 483 kts
2026-05-04 01:53 54.46238 23.10882 40927 ft 483 kts
2026-05-04 01:54 54.52808 23.13004 40915 ft 483 kts
2026-05-04 01:54 54.59433 23.15150 40917 ft 485 kts
2026-05-04 01:55 54.66074 23.17310 40918 ft 486 kts
2026-05-04 01:55 54.72715 23.19477 40912 ft 486 kts
2026-05-04 01:56 54.79362 23.21653 40913 ft 486 kts
2026-05-04 01:56 54.86005 23.23835 40911 ft 486 kts
2026-05-04 01:57 54.92651 23.26026 40908 ft 486 kts
2026-05-04 01:57 54.99291 23.28221 40907 ft 486 kts
2026-05-04 01:58 55.05930 23.30423 40899 ft 486 kts
2026-05-04 01:58 55.12572 23.32634 40911 ft 486 kts
2026-05-04 01:59 55.19208 23.34852 40896 ft 486 kts
2026-05-04 01:59 55.25854 23.37079 40895 ft 486 kts
2026-05-04 02:00 55.32498 23.39313 40896 ft 486 kts
2026-05-04 02:00 55.39144 23.41556 40904 ft 486 kts
2026-05-04 02:01 55.45748 23.43792 40886 ft 487 kts
2026-05-04 02:01 55.52398 23.46052 40887 ft 487 kts
2026-05-04 02:02 55.59045 23.48318 40884 ft 487 kts
2026-05-04 02:02 55.65704 23.50596 40889 ft 487 kts
2026-05-04 02:03 55.72364 23.52884 40876 ft 487 kts
2026-05-04 02:03 55.79027 23.55179 40867 ft 487 kts
2026-05-04 02:04 55.85688 23.57481 40872 ft 487 kts
2026-05-04 02:04 55.92345 23.59791 40885 ft 487 kts
2026-05-04 02:05 55.99010 23.62110 40864 ft 488 kts
2026-05-04 02:05 56.05642 23.64427 40864 ft 489 kts
2026-05-04 02:06 56.12312 23.66766 40862 ft 489 kts
2026-05-04 02:06 56.18993 23.69117 40870 ft 489 kts
2026-05-04 02:07 56.25666 23.71473 40854 ft 489 kts
2026-05-04 02:07 56.32345 23.73839 40854 ft 489 kts
2026-05-04 02:08 56.39030 23.76214 40854 ft 489 kts
2026-05-04 02:08 56.45713 23.78513 40851 ft 489 kts
2026-05-04 02:09 56.52409 23.80789 40846 ft 489 kts
2026-05-04 02:09 56.59090 23.83078 40848 ft 489 kts
2026-05-04 02:10 56.65786 23.85393 40841 ft 490 kts
2026-05-04 02:10 56.72482 23.87717 40856 ft 490 kts
2026-05-04 02:11 56.79182 23.90052 40828 ft 490 kts
2026-05-04 02:11 56.85885 23.92395 40827 ft 490 kts
2026-05-04 02:12 56.92597 23.94750 40828 ft 490 kts
2026-05-04 02:12 56.99292 23.97109 40843 ft 490 kts
2026-05-04 02:13 57.05991 23.99477 40835 ft 490 kts
2026-05-04 02:13 57.12650 24.01839 40834 ft 490 kts
2026-05-04 02:14 57.19355 24.04226 40848 ft 490 kts
2026-05-04 02:14 57.26053 24.06621 40838 ft 490 kts
2026-05-04 02:15 57.32756 24.09025 40843 ft 491 kts
2026-05-04 02:15 57.39457 24.11437 40842 ft 491 kts
2026-05-04 02:16 57.46169 24.13863 40842 ft 491 kts
2026-05-04 02:16 57.52876 24.16297 40842 ft 491 kts
2026-05-04 02:17 57.59580 24.18738 40848 ft 491 kts
2026-05-04 02:17 57.66289 24.21191 40848 ft 491 kts
2026-05-04 02:18 57.72965 24.23640 40846 ft 491 kts
2026-05-04 02:18 57.79668 24.26109 40849 ft 491 kts
2026-05-04 02:19 57.86379 24.28590 40849 ft 491 kts
2026-05-04 02:19 57.93088 24.31053 40848 ft 491 kts
2026-05-04 02:20 57.99809 24.33352 40848 ft 491 kts
2026-05-04 02:20 58.06533 24.35622 40848 ft 491 kts
2026-05-04 02:21 58.13249 24.37921 40861 ft 491 kts
2026-05-04 02:21 58.19969 24.40247 40845 ft 491 kts
2026-05-04 02:22 58.26696 24.42589 40845 ft 491 kts
2026-05-04 02:22 58.33415 24.44937 40842 ft 491 kts
2026-05-04 02:23 58.40042 24.47261 40702 ft 490 kts
2026-05-04 02:23 58.43479 24.48470 40451 ft 491 kts
2026-05-04 02:23 58.46838 24.49654 40213 ft 491 kts
2026-05-04 02:24 58.50194 24.50839 39972 ft 490 kts
2026-05-04 02:24 58.53548 24.52026 39736 ft 490 kts
2026-05-04 02:24 58.56893 24.53213 39408 ft 487 kts
2026-05-04 02:24 58.60211 24.54394 38857 ft 485 kts
2026-05-04 02:25 58.63537 24.55579 38173 ft 485 kts
2026-05-04 02:25 58.66854 24.56761 37451 ft 484 kts
2026-05-04 02:25 58.70159 24.57942 36800 ft 483 kts
2026-05-04 02:25 58.73459 24.59124 36123 ft 481 kts
2026-05-04 02:26 58.76750 24.60304 35434 ft 481 kts
2026-05-04 02:26 58.80038 24.61482 34684 ft 482 kts
2026-05-04 02:26 58.83348 24.62668 33893 ft 484 kts
2026-05-04 02:26 58.86664 24.63857 32991 ft 486 kts
2026-05-04 02:27 58.89998 24.65056 32146 ft 487 kts
2026-05-04 02:27 58.93336 24.66260 31277 ft 489 kts
2026-05-04 02:27 58.96686 24.67472 30389 ft 491 kts
2026-05-04 02:27 59.00011 24.68677 29425 ft 495 kts
2026-05-04 02:28 59.03403 24.69910 28631 ft 493 kts
2026-05-04 02:28 59.06805 24.71159 27995 ft 488 kts
2026-05-04 02:28 59.10086 24.72367 27338 ft 484 kts
2026-05-04 02:28 59.13383 24.73580 26680 ft 480 kts
2026-05-04 02:29 59.16654 24.74783 26033 ft 476 kts
2026-05-04 02:29 59.19898 24.75976 25391 ft 473 kts
2026-05-04 02:29 59.23126 24.77164 24745 ft 470 kts
2026-05-04 02:29 59.26327 24.78343 24112 ft 466 kts
2026-05-04 02:30 59.29504 24.79516 23471 ft 463 kts
2026-05-04 02:30 59.32662 24.80684 22756 ft 460 kts
2026-05-04 02:30 59.34733 24.81452 22335 ft 456 kts
2026-05-04 02:30 59.38871 24.83002 21500 ft 450 kts
2026-05-04 02:31 59.40644 24.83899 21143 ft 451 kts 12°
2026-05-04 02:31 59.42583 24.85199 20745 ft 450 kts 14°
2026-05-04 02:31 59.45497 24.87367 20108 ft 447 kts 16°
2026-05-04 02:31 59.48375 24.89671 19466 ft 444 kts 17°
2026-05-04 02:32 59.52163 24.92832 18621 ft 440 kts 18°
2026-05-04 02:32 59.54019 24.94403 18230 ft 438 kts 18°
2026-05-04 02:32 59.56809 24.96767 17517 ft 435 kts 18°
2026-05-04 02:32 59.59572 24.99097 16874 ft 430 kts 18°
2026-05-04 02:33 59.62310 25.01400 16241 ft 425 kts 17°
2026-05-04 02:33 59.65018 25.03677 15611 ft 421 kts 18°
2026-05-04 02:33 59.67702 25.05932 14984 ft 417 kts 18°
2026-05-04 02:33 59.70360 25.08168 14347 ft 413 kts 18°
2026-05-04 02:34 59.72993 25.10385 13725 ft 410 kts 18°
2026-05-04 02:34 59.75607 25.12590 13094 ft 405 kts 18°
2026-05-04 02:34 59.78152 25.14747 12924 ft 388 kts 18°
2026-05-04 02:34 59.80553 25.16789 12819 ft 372 kts 18°
2026-05-04 02:35 59.82886 25.18773 12679 ft 357 kts 17°
2026-05-04 02:35 59.85117 25.20675 12541 ft 342 kts 17°
2026-05-04 02:35 59.87263 25.22502 12404 ft 329 kts 17°
2026-05-04 02:35 59.89338 25.24213 12260 ft 314 kts 13°
2026-05-04 02:36 59.91390 25.24990 12057 ft 292 kts 353°
2026-05-04 02:36 59.93383 25.24854 11738 ft 283 kts 348°
2026-05-04 02:36 59.95325 25.24557 11441 ft 277 kts 347°
2026-05-04 02:36 59.97238 25.24256 11165 ft 275 kts 348°
2026-05-04 02:37 59.99140 25.23964 10867 ft 274 kts 348°
2026-05-04 02:37 60.01040 25.23681 10587 ft 273 kts 348°
2026-05-04 02:37 60.02929 25.23405 10306 ft 272 kts 348°
2026-05-04 02:37 60.04811 25.23133 10028 ft 271 kts 348°
2026-05-04 02:38 60.06690 25.22863 9729 ft 270 kts 348°
2026-05-04 02:38 60.08627 25.22574 9566 ft 285 kts 349°
2026-05-04 02:38 60.10613 25.22286 9385 ft 285 kts 349°
2026-05-04 02:38 60.12598 25.22006 8921 ft 285 kts 349°
2026-05-04 02:39 60.14583 25.21725 8677 ft 287 kts 349°
2026-05-04 02:39 60.16543 25.21447 8389 ft 285 kts 350°
2026-05-04 02:39 60.18520 25.21166 8091 ft 284 kts 350°
2026-05-04 02:39 60.20491 25.20884 7780 ft 283 kts 350°
2026-05-04 02:40 60.22445 25.20604 7477 ft 282 kts 351°
2026-05-04 02:40 60.24405 25.20323 7166 ft 281 kts 351°
2026-05-04 02:40 60.26354 25.20042 6844 ft 280 kts 351°
2026-05-04 02:40 60.28292 25.19762 6519 ft 279 kts 351°
2026-05-04 02:41 60.30218 25.19649 6268 ft 275 kts
2026-05-04 02:41 60.32003 25.20826 6144 ft 269 kts 30°
2026-05-04 02:41 60.33373 25.23296 6008 ft 261 kts 45°
2026-05-04 02:41 60.34580 25.25994 5803 ft 257 kts 46°
2026-05-04 02:42 60.35766 25.28688 5544 ft 256 kts 46°
2026-05-04 02:42 60.36950 25.31363 5310 ft 254 kts 46°
2026-05-04 02:42 60.38131 25.34014 5049 ft 253 kts 46°
2026-05-04 02:42 60.39306 25.36649 4749 ft 251 kts 46°
2026-05-04 02:43 60.40478 25.39236 4505 ft 249 kts 44°
2026-05-04 02:43 60.41914 25.41055 4338 ft 242 kts 13°
2026-05-04 02:43 60.43547 25.41151 4073 ft 233 kts 342°
2026-05-04 02:43 60.44982 25.39744 3920 ft 228 kts 323°
2026-05-04 02:44 60.46094 25.37516 3762 ft 225 kts 299°
2026-05-04 02:44 60.46558 25.34567 3613 ft 220 kts 276°
2026-05-04 02:44 60.46682 25.31463 3459 ft 221 kts 272°
2026-05-04 02:44 60.46535 25.28393 3301 ft 221 kts 251°
2026-05-04 02:45 60.45764 25.25733 3175 ft 220 kts 229°
2026-05-04 02:45 60.44690 25.23506 3016 ft 221 kts 225°
2026-05-04 02:45 60.43615 25.21284 2993 ft 221 kts 227°
2026-05-04 02:45 60.42607 25.19030 2954 ft 210 kts 229°
2026-05-04 02:46 60.41646 25.16873 2754 ft 203 kts 229°
2026-05-04 02:46 60.40710 25.14803 2479 ft 193 kts 228°
2026-05-04 02:46 60.39840 25.12903 2195 ft 180 kts 227°
2026-05-04 02:46 60.39000 25.11139 1942 ft 168 kts 226°
2026-05-04 02:47 60.38206 25.09539 1738 ft 154 kts 224°
2026-05-04 02:47 60.37533 25.07963 1502 ft 143 kts 230°
2026-05-04 02:47 60.36890 25.06506 1298 ft 135 kts 227°
2026-05-04 02:47 60.36274 25.05097 1123 ft 134 kts 229°
2026-05-04 02:48 60.35652 25.03689 952 ft 135 kts 228°
2026-05-04 02:48 60.35016 25.02280 777 ft 136 kts 228°
2026-05-04 02:48 60.34381 25.00866 590 ft 137 kts 229°
2026-05-04 02:48 60.33747 24.99438 394 ft 136 kts 229°
2026-05-04 02:49 60.33112 24.98016 226 ft 137 kts 228°
2026-05-04 02:49 60.32517 24.96697 180 ft 112 kts 227°
2026-05-04 02:49 60.32148 24.95881 183 ft 48 kts 227°
2026-05-04 02:49 60.31929 24.95419 179 ft 42 kts 217°
2026-05-04 02:50 60.31723 24.95222 179 ft 20 kts 196°
2026-05-04 02:50 60.31609 24.95209 176 ft 15 kts 196°
2026-05-04 02:50 60.31525 24.95066 176 ft 15 kts 228°
2026-05-04 02:50 60.31440 24.94996 174 ft 13 kts 149°
2026-05-04 02:51 60.31380 24.95130 173 ft 13 kts 115°
2026-05-04 02:51 60.31406 24.95254 173 ft 10 kts 49°
2026-05-04 02:51 60.31452 24.95355 173 ft 8 kts 47°
2026-05-04 02:51 60.31467 24.95388 173 ft 1 kts 47°
2026-05-04 02:52 60.31469 24.95394 173 ft 0 kts 50°
2026-05-04 02:52 60.31467 24.95413 173 ft 2 kts 104°
2026-05-04 02:52 60.31455 24.95435 173 ft 5 kts 134°
2026-05-04 02:52 60.31426 24.95490 173 ft 5 kts 137°
2026-05-04 02:53 60.31420 24.95500 173 ft 1 kts 137°
2026-05-04 02:53 60.31420 24.95501 173 ft 0 kts 137°